GW5292 Weather Reports


time (UTC)temp
F
wind
direction
speed
knots
gust
knots
rain 1hr
in
rain 24hr
in
rain mn
in
humidity
%
barometer
mb
20260903213019 85 208 0.0 1.7 0.00 1.01 1.01 70 1012.4
20260903211521 86 208 0.9 2.6 0.00 1.01 1.01 67 1012.1
20260903210027 86 9 0.0 1.7 0.00 1.01 1.01 67 1012.2
20260903204530 86 153 0.0 1.7 0.00 1.01 1.01 68 1012.4
20260903203026 86 189 0.0 2.6 0.00 1.02 1.01 69 1012.5
20260903201531 85 212 1.7 2.6 0.00 1.02 1.01 68 1012.6
20260903200025 84 165 0.9 2.6 0.00 1.02 1.01 71 1012.8
20260903194530 83 194 0.9 2.6 0.00 1.02 1.01 71 1013.0
20260903193017 83 180 0.9 4.3 0.00 1.02 1.01 70 1013.1
20260903191515 84 234 2.6 4.3 0.00 1.02 1.01 68 1013.3
20260903190026 84 195 1.7 5.2 0.00 1.02 1.01 69 1013.5
20260903184531 84 222 3.5 4.3 0.00 1.02 1.01 70 1013.6
20260903183039 83 188 1.7 5.2 0.00 1.02 1.01 70 1013.8
20260903181515 83 190 2.6 6.1 0.00 1.02 1.01 70 1014.1
20260903180006 83 185 1.7 6.1 0.00 1.02 1.01 73 1014.1
20260903174505 82 191 3.5 6.1 0.00 1.02 1.01 72 1014.4
20260903173006 82 198 1.7 5.2 0.00 1.02 1.01 75 1014.3
20260903171509 82 130 1.7 4.3 0.00 1.03 1.01 77 1014.5
20260903170018 81 202 2.6 5.2 0.00 1.04 1.01 76 1014.8
20260903164505 80 181 4.3 6.1 0.00 1.07 1.01 78 1014.9
20260903163005 79 183 3.5 5.2 0.00 1.08 1.01 80 1015.2
20260903161507 79 158 3.5 6.1 0.00 1.08 1.01 80 1015.4
20260903160014 79 199 1.7 6.1 0.00 1.08 1.01 83 1015.5
20260903154523 77 196 2.6 4.3 0.00 1.08 1.01 88 1015.7
20260903153003 75 194 3.5 4.3 0.00 1.08 1.01 88 1016.0
20260903151506 75 182 1.7 2.6 0.00 1.08 1.01 90 1016.5
20260903150023 74 185 0.9 3.5 0.00 1.08 1.01 91 1016.4
20260903144538 74 202 0.9 3.5 0.00 1.08 1.01 1016.2
20260903143035 73 194 1.7 3.5 0.00 1.08 1.01 93 1016.6
20260903141504 73 191 0.9 2.6 0.00 1.08 1.01 94 1016.6
20260903140015 73 187 1.7 2.6 0.00 1.08 1.01 94 1016.3
20260903134514 72 223 1.7 2.6 0.00 1.08 1.01 94 1016.0
20260903133026 72 203 1.7 3.5 0.00 1.08 1.01 95 1015.7
20260903131528 71 182 1.7 3.5 0.00 1.08 1.01 97 1015.9
20260903130008 70 175 1.7 2.6 0.00 1.08 1.01 97 1015.7
20260903124513 69 215 0.9 1.7 0.00 1.08 1.01 97 1016.0
20260903123017 69 205 1.7 2.6 0.00 1.08 1.01 97 1016.2
20260903121532 69 190 0.9 2.6 0.00 1.08 1.01 97 1016.1
20260903120045 69 205 0.9 1.7 0.01 1.08 1.01 97 1015.7
20260903114514 69 239 0.0 1.7 0.01 1.08 1.01 97 1015.7
20260903113022 68 270 0.0 1.7 0.01 1.08 1.01 97 1015.4
20260903111524 68 270 0.0 2.6 0.02 1.08 1.01 97 1014.7
20260903110032 68 194 1.7 4.3 0.03 1.07 1.00 97 1015.0
20260903104552 68 200 1.7 4.3 0.04 1.07 1.00 97 1016.2
20260903103016 68 196 1.7 2.6 0.04 1.07 1.00 97 1016.5
20260903101529 68 209 1.7 2.6 0.03 1.05 0.99 97 1017.2
20260903100036 68 192 0.0 1.7 0.01 1.04 0.97 97 1017.4
20260903094547 68 192 0.0 2.6 0.01 1.03 0.96 97 1016.7
20260903093036 68 200 0.0 1.7 0.05 1.03 0.96 97 1016.6
20260903091523 68 196 0.9 1.7 0.08 1.03 0.96 97 1016.8
20260903090003 68 33 0.9 2.6 0.11 1.03 0.96 97 1015.8
20260903084507 68 348 0.9 1.7 0.14 1.02 0.95 97 1016.5
20260903083011 68 236 0.0 1.7 0.13 0.98 0.91 97 1016.4
20260903081515 67 352 0.0 0.9 0.16 0.95 0.88 97 1016.6
20260903080025 68 352 0.0 1.7 0.16 0.92 0.85 97 1017.2
20260903074505 67 179 0.0 1.7 0.12 0.88 0.81 97 1017.3
20260903073008 67 179 0.0 2.6 0.09 0.85 0.78 96 1017.6
20260903071514 67 167 0.0 1.7 0.03 0.79 0.72 96 1018.7
20260903070022 68 165 0.9 1.7 0.00 0.76 0.69 96 1017.9
20260903064527 68 165 0.9 1.7 0.00 0.76 0.69 96 1017.1
20260903063010 68 165 0.0 1.7 0.01 0.76 0.69 96 1017.2
20260903061509 68 53 0.0 3.5 0.07 0.76 0.69 96 1017.6
20260903060019 68 9 0.9 2.6 0.32 0.76 0.69 96 1017.6
20260903054523 68 352 1.7 3.5 0.57 0.76 0.69 96 1017.4
20260903053028 68 306 0.0 1.7 0.68 0.75 0.68 96 1016.8
20260903051507 68 299 0.9 3.5 0.62 0.69 0.62 96 1017.0
20260903050014 69 27 0.9 4.3 0.37 0.44 0.37 96 1018.7
20260903044521 69 42 0.9 5.2 0.12 0.19 0.12 95 1019.7
20260903043107 70 331 2.6 5.2 0.00 0.07 0.00 95 1019.3
20260903041530 70 17 2.6 7.0 0.00 0.07 0.00 95 1018.2
20260903040017 70 43 0.9 3.5 0.00 0.07 0.00 95 1018.1
20260903034533 71 67 0.0 3.5 0.00 0.07 0.07 95 1018.2
20260903033024 71 330 0.0 1.7 0.00 0.07 0.07 95 1018.2
20260903031531 71 11 0.9 1.7 0.00 0.07 0.07 95 1018.4
20260903030034 71 351 0.9 2.6 0.00 0.07 0.07 95 1018.2
20260903024523 71 26 0.9 1.7 0.00 0.07 0.07 95 1017.9
20260903023022 71 352 0.9 1.7 0.00 0.07 0.07 95 1018.1
20260903021532 71 40 0.9 2.6 0.00 0.07 0.07 95 1018.2
20260903020011 71 40 0.9 1.7 0.00 0.07 0.07 95 1018.3
20260903014503 71 317 0.0 2.6 0.00 0.07 0.07 95 1017.8
20260903013007 71 345 0.9 1.7 0.00 0.07 0.07 95 1017.7
20260903011510 71 40 0.0 2.6 0.00 0.07 0.07 95 1017.6
20260903010004 71 19 0.0 1.7 0.00 0.07 0.07 95 1017.8
20260903004506 71 352 0.0 1.7 0.00 0.07 0.07 95 1018.1
20260903003004 71 43 0.9 1.7 0.00 0.07 0.07 95 1018.0
20260903001504 71 29 0.9 1.7 0.00 0.07 0.07 95 1018.0
20260903000004 71 9 0.0 3.5 0.00 0.07 0.07 94 1017.7
20260902234510 71 38 0.9 4.3 0.00 0.07 0.07 93 1017.5
20260902233004 71 240 0.9 5.2 0.00 0.08 0.07 93 1017.5
20260902231506 72 44 0.0 3.5 0.00 0.18 0.07 92 1017.5
20260902230003 72 29 0.0 3.5 0.00 0.25 0.07 92 1017.6
20260902224505 72 352 0.0 1.7 0.00 0.26 0.07 93 1017.6
20260902223020 73 38 0.0 2.6 0.00 0.36 0.07 92 1017.9
20260902221503 73 59 0.9 1.7 0.00 0.37 0.07 91 1018.1
20260902220006 73 28 0.0 1.7 0.00 0.37 0.07 91 1018.3
20260902214507 73 241 0.9 1.7 0.00 0.37 0.07 91 1018.2